Regional Weather Roundup
Issued by NWS Albany, NY

Current Version | Previous Version | Graphics & Text | Print | Product List | Glossary Off
Versions: 1 2 3 4 5 6 7 8 9 10 11 12 13 14 15 16 17 18 19 20 21 22 23 24 25 26 27 28 29 30 31 32 33 34 35 36 37 38 39 40 41 42 43 44 45 46 47 48 49 50

000
ASUS41 KALY 290010
RWRALY

NEW YORK STATE HOURLY WEATHER ROUNDUP
NATIONAL WEATHER SERVICE ALBANY NY
800 PM EDT SAT MAR 28 2015

NOTE: "FAIR" INDICATES FEW OR NO CLOUDS BELOW 12,000 FEET WITH NO
SIGNIFICANT WEATHER AND/OR NO OBSTRUCTIONS TO VISIBILITY.

NYZ032-033-038>043-046>054-057>066-NYZ062>081-290100-
EAST


CITY           SKY/WX    TMP DP  RH WIND       PRES   REMARKS
ALBANY         LGT SNOW  28  22  78 NW6       30.03R WCI  22
GLENS FALLS    CLOUDY    28  13  53 NW8       30.04R WCI  20
POUGHKEEPSIE   FLURRIES  30  20  66 NW6       30.01R WCI  24
MONTGOMERY     CLOUDY    29  13  51 NW17G24   30.00R WCI  17
WHITE PLAINS   LGT SNOW  28  24  85 NW15G24   29.97R VSB 1   WCI  16
ISLIP          LGT SNOW  30  26  85 NW16G25   29.96R FOG     WCI  19
NEW YORK CITY  MOCLDY    33  21  61 NW20G28   30.00R WCI  21
CENTRAL PARK   CLOUDY    33  18  53 VRB6G18   30.02R WCI  28
$$

NYZ005>009-017-018-044>046-055-056-290100-
CENTRAL


CITY           SKY/WX    TMP DP  RH WIND       PRES   REMARKS
FULTON         CLEAR     24  10  55 W6        30.14R WCI  17
SYRACUSE       PTCLDY    23   7  50 W13       30.14R WCI  11
ROME           CLEAR     22   4  46 NW13      30.13R WCI  10
ELMIRA         CLEAR     22   3  44 NW10      30.13R WCI  11
BINGHAMTON     PTCLDY    17   3  54 N10       30.04R WCI   5
MONTICELLO     PTCLDY    21  12  68 NW10      30.00R WCI  10
$$

NYZ026>034-041>043-290100-
NORTH


CITY           SKY/WX    TMP DP  RH WIND       PRES   REMARKS
WATERTOWN      CLEAR     24   8  50 CALM      30.13R
FORT DRUM      NOT AVBL
MASSENA        CLEAR     25   2  37 W7        30.10R WCI  17
SARANAC LAKE   CLEAR     13   3  64 CALM      29.97R
PLATTSBURGH    CLEAR     24   3  40 W3        30.06R
$$

NYZ001>004-010>016-019>021-290100-
WEST


CITY           SKY/WX    TMP DP  RH WIND       PRES   REMARKS
NIAGARA FALLS  PTCLDY    25   7  46 NW8       30.19R WCI  16
BUFFALO        PTCLDY    22  12  65 SW9       30.19R WCI  12
DUNKIRK        CLEAR     24  15  68 SW9       30.21R WCI  14
JAMESTOWN      CLEAR     19   7  58 W10       30.14R WCI   8
WELLSVILLE     CLEAR     18   2  49 NW10G24   30.08R WCI   6
ROCHESTER      CLEAR     26   5  40 W9        30.16R WCI  17
PENN YAN       CLEAR     23   6  48 W6        30.13R WCI  16
$$

             KEY
       WCI = WIND CHILL INDEX
       VSB = VISIBILITY
       HX  = HEAT INDEX
$$


USA.gov is the U.S. government's official web portal to all federal, state and local government web resources and services.